Tracking 17143 objects as of 30-June-2015
HD Live streaming from Space Station

BONUM 1

Track BONUM 1 now!
BONUM 1 is classified as:


NORAD ID: 25546
Int'l Code: 1998-068A
Perigee: 36,133.0 km
Apogee: 36,153.9 km
Inclination: 2.8 °
Period: 1,454.0 minutes
Semi major axis: 42514 km
RCS: 0.003 m2 (small)
Launch date: November 22, 1998
Source: Commonwealth of Independent States (former USSR) (CIS)

Television broadcasting; 8 Ku-band, Siberia or Europe, selected.
Your satellite tracking list
Your tracking list is empty





NASA's NSSDC Master Catalog

Two Line Element Set (TLE):
1 25546U 98068A   15178.80735660  .00000064  00000-0  10000-3 0  9994
2 25546 002.8185 070.9225 0002464 322.9431 036.6238 00.99037130 60841

Source of the keplerian elements: AFSPC

N2YO: 312